STARLINK-36707

Last updated on Tue Mar 10 2026 00:02:05 GMT+0000 (Coordinated Universal Time)

1 67706U 26025P 26068.30406264 .00115852 00000+0 76609-3 0 9990 2 67706 97.2851 179.9279 0001696 66.7141 293.4302 15.75220143 5885
UTC large
Height (km)
Speed (km/s)
/
Latitude / Longitude
Inclination (degrees)
Orbital Period (minutes)
Azimuth
Elevation
Range (km)
Doppler Factor

Next 0 passes for location: London (51.5072 / 0.1276)

Sorry there are no passes over London.